Regional Weather Roundup
Issued by NWS

Home | Current Version | Previous Version | Graphics & Text | Print | Product List | Glossary On
Versions: 1 2 3 4 5 6 7 8 9 10 11 12 13 14 15 16 17 18 19 20 21 22 23 24 25 26 27 28 29 30 31 32 33 34 35 36 37 38 39 40 41 42 43 44 45 46 47 48 49 50
833
ASUS43 KDTX 110310
RWRMI
MICHIGAN HOURLY REGIONAL WEATHER ROUNDUP
NATIONAL WEATHER SERVICE DETROIT/PONTIAC MI
1000 PM EST SUN DEC 10 2017

NOTE: "FAIR" INDICATES FEW OR NO CLOUDS BELOW 12,000 FEET WITH NO
SIGNIFICANT WEATHER AND/OR OBSTRUCTION TO VISIBILITY.

MIZ047>049-052>055-059>063-066>070-074>076-081>083-110400-
SOUTHEAST LOWER MICHIGAN

CITY           SKY/WX    TMP DP  RH WIND       PRES   REMARKS
ADRIAN         CLOUDY    28  24  85 NW9       29.98R WCI  19
ALMA           CLOUDY    26  23  88 W8        29.98S WCI  18
ANN ARBOR      CLOUDY    27  23  85 W10       29.96R WCI  17
BAD AXE        CLOUDY    26  21  82 N15       29.93R WCI  13
CARO           LGT SNOW  26  24  90 W8        29.94R WCI  18
DETROIT CITY   CLOUDY    28  22  78 W7        29.96S WCI  21
DETROIT        CLOUDY    29  23  78 W9        29.97R WCI  20
FLINT          CLOUDY    25  23  92 W9        29.96R WCI  15
GROSSE ILE     CLOUDY    30  23  76 W8        29.96R WCI  22
HILLSDALE      MIX PCPN  28  23  80 N16G22    29.96R WCI  17
HOWELL         CLOUDY    26  24  93 NW9       29.96R WCI  17

CITY           SKY/WX    TMP DP  RH WIND       PRES   REMARKS
JACKSON        CLOUDY    27  22  81 NW12G18   29.97R WCI  17
LAMBERTVILLE   CLOUDY    29  22  74 W5        29.97S WCI  24
LANSING        CLOUDY    26  22  84 W9        29.98R WCI  17
LAPEER         LGT SNOW  26  24  91 W6        29.94S WCI  19
MASON          CLOUDY    27  21  77 NW9       29.97R WCI  18
MONROE         CLOUDY    30  22  72 W7        29.96R WCI  23
MT. CLEMENS    FLURRIES  28  25  90 W9        29.94R WCI  19
PONTIAC        LGT SNOW  25  24  96 W10       29.93R WCI  15
PORT HOPE        N/A     26  18  71 NW20G29   29.92R WCI  12
PORT HURON     CLOUDY    27  23  86 W5        29.94S WCI  21
TRI CITIES     CLOUDY    26  23  88 NW10      29.97R WCI  16
MIDLAND        FLURRIES  26  21  82 NW12      29.97R WCI  16
TROY           FLURRIES  28  25  87 W5        29.97R WCI  23
SAGINAW HB     CLOUDY    27  23  86 W10       29.96R WCI  17
$$
MIZ043>046-050>051-056>058-064>065-071>073-077>080-110400-
SOUTHWEST LOWER MICHIGAN

CITY           SKY/WX    TMP DP  RH WIND       PRES   REMARKS
BATTLE CREEK   CLOUDY    27  21  78 N7        30.00R WCI  19
BENTON HARBOR  CLOUDY    32  22  66 NW12G17   30.03R WCI  23
BIG RAPIDS     LGT SNOW  24  17  75 N10G17    29.97S WCI  13
COLDWATER      CLOUDY    28  25  86 N10G17    29.99R WCI  19
FREMONT        LGT SNOW  25  23  89 N5        30.00S WCI  20
HOLLAND        CLOUDY    29  20  69 CALM      30.02S
GRAND RAPIDS   FLURRIES  27  22  81 W6        29.99S WCI  20
IONIA          CLOUDY    27  21  76 W6        29.97S WCI  21
KALAMAZOO      CLOUDY    28  21  75 N9        30.01R WCI  19
LUDINGTON      CLOUDY    27  18  68 N7        30.01R WCI  20
MARSHALL       CLOUDY    27  21  79 NW8       29.99R WCI  18
MOUNT PLEASANT LGT SNOW  26  21  80 NW6       29.97R WCI  19
MUSKEGON       FLURRIES  30  19  63 NW12      30.01S WCI  20
SOUTH HAVEN    CLOUDY    32  23  68 NW8       30.02S WCI  25
$$
MIZ016>042-110400-
NORTHERN LOWER MICHIGAN

CITY           SKY/WX    TMP DP  RH WIND       PRES   REMARKS
ALPENA         LGT SNOW  17  10  74 NW9       29.98R WCI   6
BEAVER ISLAND  CLOUDY    19  10  65 NW8       30.01R WCI   9
BELLAIRE       CLOUDY    19  11  72 CALM      30.01F
CADILLAC       CLOUDY    19   9  67 NW12      29.95S WCI   6
CHARLEVOIX     CLOUDY    20  10  65 NW12G18   30.03S WCI   8
FRANKFORT      CLOUDY    24  12  59 NW8       30.02S WCI  16
GAYLORD        CLOUDY    13   6  74 VRB3      29.94S
GRAYLING       FLURRIES  17   9  71 N9        29.97R WCI   5
HARBOR SPRINGS CLOUDY    17   7  63 W3        29.99S
HOUGHTON LAKE  CLOUDY    19  11  70 NW12G17   29.96R WCI   7
MANISTEE       FLURRIES  25  16  68 N10G17    30.02R WCI  15
OSCODA         CLOUDY    20  10  65 NW14      29.97R WCI   7
PELLSTON       CLOUDY    17   7  64 NW8       29.99F WCI   7
ROGERS CITY    CLOUDY    18  10  69 NW9       29.98S WCI   7
TRAVERSE CITY  FLURRIES  23  13  65 N9        30.00S WCI  13
$$
MIZ007>008-015-110400-
EASTERN UPPER MICHIGAN

CITY           SKY/WX    TMP DP  RH WIND       PRES   REMARKS
KINROSS        CLOUDY     8   2  76 NE7       29.98S WCI  -3
MACKINAC ISLAN CLOUDY    17   6  64 NW12G18   29.98R WCI   4
NEWBERRY       CLOUDY    14  12  92 W5        29.98R WCI   6
S. S. MARIE    MIX PCPN   7  -2  66 NE3       29.98S
MUNISING         N/A     21  12  68 N14       30.00S WCI   8
$$
MIZ004>006-011>014-085-110400-
CENTRAL UPPER MICHIGAN

CITY           SKY/WX    TMP DP  RH WIND       PRES   REMARKS
MANISTIQUE     CLOUDY    16  10  76 W3        30.01S
ESCANABA       CLOUDY    12   4  70 W5        30.05S WCI   4
MENOMINEE      CLOUDY    18  11  74 N5        30.07R WCI  11
SAWYER-GWINN   CLOUDY    12   5  73 W8        29.99S WCI   1
$$
MIZ001>003-009>011-084-110400-
WESTERN UPPER MICHIGAN

CITY           SKY/WX    TMP DP  RH WIND       PRES   REMARKS
IRON MOUNTAIN  CLOUDY    15   8  73 CALM      30.00S
HOUGHTON       CLOUDY    11   4  73 SE5       29.97F WCI   3
COPPER HARBOR    N/A     16   7  67 N9        30.02S WCI   4
IRONWOOD       CLOUDY    16  11  80 S3        29.98
$$

ABBREVIATIONS USED IN REMARKS
   TC - TEMPERATURE IN CELSIUS
  WCI - WIND CHILL INDEX
   HX - HEAT INDEX
  VSB - VISIBILITY





USA.gov is the U.S. government's official web portal to all federal, state and local government web resources and services.